This is the latest recevied weather packets stored in our database for station/object NK2J. If no packets are shown the sender has not sent any weather packets the latest 10 day(s).
| Time | Temp. | Humidity | Pressure | Rain* | Wind** | Luminosity | Snow |
|---|---|---|---|---|---|---|---|
| 1778011236 | 22.78° C | 40% | 1012.7 hPa | 0 mm | - | 864 W/m² | - |
| 1778010933 | 23.89° C | 39% | 1012.6 hPa | 0 mm | - | 833 W/m² | - |
| 1778010630 | 23.33° C | 38% | 1012.7 hPa | 0 mm | - | 791 W/m² | - |
| 1778010327 | 23.33° C | 39% | 1013 hPa | 0 mm | - | 708 W/m² | - |
| 1778010022 | 23.33° C | 38% | 1013 hPa | 0 mm | - | 766 W/m² | - |
| 1778009720 | 23.33° C | 39% | 1013 hPa | 0 mm | - | 812 W/m² | - |
| 1778009417 | 23.33° C | 39% | 1013.1 hPa | 0 mm | - | 831 W/m² | - |
| 1778009116 | 23.33° C | 39% | 1013 hPa | 0 mm | - | 277 W/m² | - |
| 1778008813 | 22.78° C | 40% | 1013.4 hPa | 0 mm | - | 676 W/m² | - |
| 1778008511 | 22.78° C | 39% | 1013.3 hPa | 0 mm | - | 439 W/m² | - |
| 1778008209 | 22.78° C | 40% | 1013.3 hPa | 0 mm | - | 935 W/m² | - |
| 1778007903 | 22.22° C | 42% | 1013.4 hPa | 0 mm | - | 808 W/m² | - |
| 1778007598 | 22.22° C | 43% | 1013.5 hPa | 0 mm | - | 816 W/m² | - |
| 1778007296 | 22.78° C | 42% | 1013.6 hPa | 0 mm | - | 865 W/m² | - |
| 1778006992 | 22.22° C | 42% | 1013.5 hPa | 0 mm | - | 836 W/m² | - |
| 1778006690 | 22.22° C | 46% | 1013.5 hPa | 0 mm | - | 821 W/m² | - |
| 1778006386 | 21.67° C | 42% | 1013.8 hPa | 0 mm | - | 886 W/m² | - |
| 1778006083 | 22.22° C | 43% | 1013.7 hPa | 0 mm | - | 238 W/m² | - |
| 1778005780 | 21.67° C | 43% | 1013.7 hPa | 0 mm | - | 400 W/m² | - |
| 1778005477 | 22.22° C | 42% | 1013.7 hPa | 0 mm | - | 221 W/m² | - |
| 1778005173 | 21.67° C | 46% | 1013.7 hPa | 0 mm | - | 304 W/m² | - |
| 1778004870 | 21.11° C | 49% | 1013.5 hPa | 0 mm | - | 204 W/m² | - |
| 1778004567 | 21.67° C | 49% | 1013.7 hPa | 0 mm | - | 227 W/m² | - |
| 1778004263 | 21.67° C | 49% | 1013.8 hPa | 0 mm | - | 900 W/m² | - |
| 1778003960 | 22.22° C | 48% | 1013.7 hPa | 0 mm | - | 210 W/m² | - |
* Rain latest hour (hover to see other rain measurements)
** Current wind speed in m/s (hover to see current wind gust speed)